SXM-8

Last updated on Sat Mar 14 2026 00:02:57 GMT+0000 (Coordinated Universal Time)

1 48838U 21049A 26072.39973768 -.00000205 00000+0 00000+0 0 9992 2 48838 0.0324 51.3663 0004610 356.5126 181.8973 1.00270921 17631
UTC large
Height (km)
Speed (km/s)
/
Latitude / Longitude
Inclination (degrees)
Orbital Period (minutes)
Azimuth
Elevation
Range (km)
Doppler Factor

Next 0 passes for location: London (51.5072 / 0.1276)

Sorry there are no passes over London.